TimeAST,TemperatureF,Dew PointF,Humidity,Sea Level PressureIn,VisibilityMPH,Wind Direction,Wind SpeedMPH,Gust SpeedMPH,PrecipitationIn,Events,Conditions,WindDirDegrees,DateUTC
12:56 AM,79.0,73.9,84,30.05,10.0,East,9.2,-,N/A,,Scattered Clouds,80,2013-06-24 04:56:00
1:56 AM,78.1,73.9,87,30.04,10.0,East,6.9,-,0.02,,Scattered Clouds,90,2013-06-24 05:56:00
2:56 AM,78.1,73.9,87,30.03,10.0,East,3.5,-,N/A,,Partly Cloudy,90,2013-06-24 06:56:00
3:56 AM,77.0,75.0,94,30.02,10.0,ENE,4.6,-,0.03,,Scattered Clouds,70,2013-06-24 07:56:00
4:56 AM,78.1,75.0,90,30.02,10.0,ESE,3.5,-,N/A,,Scattered Clouds,110,2013-06-24 08:56:00
5:56 AM,78.1,75.0,90,30.03,10.0,East,4.6,-,N/A,,Mostly Cloudy,100,2013-06-24 09:56:00
6:51 AM,75.2,73.4,94,30.05,7.0,SE,11.5,18.4,0.02,Rain,Heavy Rain,140,2013-06-24 10:51:00
6:56 AM,75.0,73.0,94,30.05,10.0,Variable,4.6,18.4,0.13,Rain,Light Rain,0,2013-06-24 10:56:00
7:56 AM,77.0,73.9,90,30.06,10.0,South,4.6,-,0.26,Rain,Light Rain,170,2013-06-24 11:56:00
8:56 AM,79.0,75.9,90,30.06,10.0,ENE,4.6,-,0.13,,Mostly Cloudy,70,2013-06-24 12:56:00
9:27 AM,80.6,75.2,84,30.08,1.8,ENE,4.6,-,0.02,Rain,Heavy Rain,60,2013-06-24 13:27:00
9:32 AM,78.8,75.2,89,30.08,6.0,East,6.9,-,0.15,Rain,Rain,100,2013-06-24 13:32:00
9:40 AM,78.8,75.2,89,30.07,1.0,ESE,8.1,-,0.25,Rain,Heavy Rain,120,2013-06-24 13:40:00
9:56 AM,75.9,73.0,91,30.07,1.0,SSE,11.5,19.6,0.96,Rain,Heavy Rain,150,2013-06-24 13:56:00
10:06 AM,75.2,73.4,94,30.08,9.0,Variable,3.5,20.7,0.33,Rain,Light Rain,0,2013-06-24 14:06:00
10:56 AM,79.0,75.0,88,30.08,10.0,East,6.9,-,0.35,,Mostly Cloudy,80,2013-06-24 14:56:00
11:56 AM,82.9,77.0,82,30.07,10.0,Calm,Calm,-,N/A,,Mostly Cloudy,0,2013-06-24 15:56:00
12:56 PM,82.0,75.9,82,30.05,6.0,East,16.1,-,0.00,Rain,Rain,90,2013-06-24 16:56:00
1:56 PM,82.0,77.0,85,30.04,10.0,ENE,12.7,-,0.34,,Mostly Cloudy,70,2013-06-24 17:56:00
2:56 PM,82.0,75.9,82,30.03,10.0,ENE,11.5,-,N/A,,Mostly Cloudy,70,2013-06-24 18:56:00
3:56 PM,82.0,75.9,82,30.03,10.0,ENE,11.5,-,N/A,,Mostly Cloudy,70,2013-06-24 19:56:00
4:56 PM,81.0,75.9,85,30.02,10.0,East,9.2,-,N/A,,Mostly Cloudy,80,2013-06-24 20:56:00
5:56 PM,81.0,77.0,88,30.02,10.0,ENE,11.5,-,N/A,,Mostly Cloudy,70,2013-06-24 21:56:00
6:56 PM,81.0,75.9,85,30.03,10.0,East,9.2,-,N/A,,Mostly Cloudy,80,2013-06-24 22:56:00
7:56 PM,80.1,75.9,87,30.04,10.0,East,6.9,-,0.01,,Scattered Clouds,80,2013-06-24 23:56:00
8:56 PM,79.0,75.9,90,30.05,10.0,ESE,5.8,-,0.14,Rain,Light Rain,110,2013-06-25 00:56:00
9:56 PM,80.1,75.9,87,30.04,10.0,ESE,5.8,-,N/A,,Mostly Cloudy,110,2013-06-25 01:56:00
10:56 PM,79.0,75.9,90,30.07,10.0,East,10.4,-,N/A,,Mostly Cloudy,90,2013-06-25 02:56:00
11:56 PM,79.0,75.9,90,30.06,10.0,East,6.9,-,N/A,,Mostly Cloudy,80,2013-06-25 03:56:00